{"data":{"norad_id":44047,"epoch":"2026-09-20T03:39:49.872384Z","epoch_age_seconds":88386,"freshness":"FRESH","line1":"1 44047U 19008A   26263.15266056  .00000389  00000+0  69395-4 0  9992","line2":"2 44047  98.0101 326.5963 0001038  85.5724 274.5602 14.72295654407212","mean_motion":14.72295654,"eccentricity":0.0001038,"inclination_deg":98.0101,"raan_deg":326.5963,"arg_perigee_deg":85.5724,"mean_anomaly_deg":274.5602,"bstar":6.9395e-5,"rev_number":40721,"period_min":97.806442346532,"perigee_km":653.01908776503,"apogee_km":654.47890729812,"semimajor_km":7031.8859975316,"source":"CELESTRAK","updated_at":"2026-09-20T09:00:14.448658Z"}}